Temp_Advection
nan nan nan nan nan nan nan nan nan nan nan nan nan nan nan nan nan nan nan nan nan nan nan nan nan nan nan nan nan nan nan nan nan nan nan nan nan nan nan nan nan nan nan nan nan nan nan nan nan nan nan nan nan nan
nan 0 1 0 -0 -0 0 0 -0 0 -0 -0 0 -0 0 -0 -0 -0 -0 -0 -0 -1 -1 -1 -1 -0 0 0 0 -0 0 -0 -0 -0 -0 -0 -0 -0 -0 -0 0 -0 -0 -0 -0 -1 -1 -0 0 0 0 0 -0 nan
nan 0 2 0 -0 -0 -0 0 -0 0 -0 -0 0 -0 -0 -0 -0 -0 -0 -0 -0 -0 -1 -1 -1 -0 -0 -0 0 -0 0 0 0 -0 -0 0 -0 -0 -0 -0 -0 -0 0 0 0 -0 -0 -0 -0 -0 0 0 0 nan
nan -1 1 1 0 -0 -0 0 0 -0 0 -0 -0 0 -0 -0 -0 -0 -0 -0 -0 -0 -1 -1 -0 0 -0 -0 0 0 0 0 0 0 0 -0 -0 -0 -0 -0 -0 -0 -0 0 -0 -1 -0 -1 -0 -0 -0 -0 0 nan
nan -1 1 1 0 0 -0 0 1 0 -0 -0 0 0 -0 -0 -0 -0 -0 -0 -0 -0 -0 -1 -0 -0 -0 0 0 0 0 0 0 0 -0 -0 -0 -0 -0 -0 -0 -0 -0 -0 -0 0 0 -0 -0 -0 -0 -0 0 nan
nan -1 -0 0 0 1 0 -0 0 0 0 -0 -0 0 0 0 -0 -0 -0 -0 0 -0 -1 -0 -0 0 0 0 0 0 0 0 0 0 -0 -0 -0 -0 -0 -0 -1 -1 -1 -0 0 0 -0 0 0 0 -0 -0 0 nan
nan 0 -1 -0 -0 1 0 0 0 0 -0 0 0 0 0 0 0 -0 -0 0 0 -0 -0 -0 -0 0 0 0 0 0 0 0 0 0 -0 -0 0 0 -0 -1 -1 -1 0 -0 -0 0 0 0 0 0 -0 -0 0 nan
nan 0 -0 -1 -0 0 0 0 1 0 0 0 0 0 0 -0 -0 -0 0 -0 -0 -0 -0 -0 0 0 -0 -0 -0 -0 -0 -0 -0 -0 -0 0 0 0 -0 -1 -1 -1 -1 -0 0 0 0 0 0 0 0 -0 -0 nan
nan -0 -0 -0 -0 0 0 -0 0 0 0 0 0 0 -0 -0 -0 -0 -0 -0 -0 -0 -0 -0 -0 0 -0 -0 -0 -0 -0 -0 0 -0 -0 0 0 -0 -0 -1 -0 -0 -0 0 0 1 1 1 0 0 -0 -0 -1 nan
nan -0 -0 -0 -0 0 0 0 -0 -0 0 -0 -0 -0 -0 0 -0 -0 -0 -0 -0 -0 -0 -0 -0 -0 -0 0 -0 -0 0 -0 -0 -0 0 0 -0 -1 -1 -0 -0 -0 -0 0 0 0 0 -0 -0 0 0 -0 -0 nan
nan -0 -0 0 0 0 0 -0 -0 -1 -0 -0 -0 0 0 -0 -0 -0 -0 -0 -0 -0 -0 -0 -0 -0 0 0 0 -0 -0 0 -0 0 0 -0 -0 -0 -1 -1 -1 -1 -0 -0 0 0 0 0 0 0 0 -0 0 nan
nan -0 -0 0 -0 0 0 -0 -0 -0 -0 -0 -0 -0 0 0 -0 -0 -0 -0 -0 -0 -0 -0 0 -0 0 0 -0 -0 -0 0 -0 -0 -0 -0 -0 -2 -2 -2 -1 -1 -1 -0 0 -0 0 0 0 0 -0 -0 0 nan
nan 0 0 -0 0 0 0 -0 -0 0 -0 -0 -0 -0 -0 -0 -0 -0 0 -0 -0 -0 -0 -0 0 0 0 0 -0 0 -0 0 -0 -0 0 0 -1 -1 -1 -1 -1 -0 -0 -0 -0 -0 0 0 0 1 0 -0 -0 nan
nan 0 -0 -0 0 0 -0 -0 -0 0 0 -0 -0 -0 -0 -0 0 -0 -0 -0 -0 -0 -0 0 0 0 -0 -0 0 0 0 0 -0 0 0 -0 -1 -1 -1 -0 -0 -0 -0 -0 -0 0 0 0 0 0 0 -0 0 nan
nan 0 -0 0 0 0 -0 -0 0 0 0 -0 -0 -0 0 -0 0 0 -0 -0 -0 -0 -0 -0 0 0 -0 0 0 0 0 -0 0 0 -0 -0 -1 -1 -1 -0 -0 -0 -0 -0 -0 0 0 0 0 0 1 1 1 nan
nan 0 -0 0 0 0 -0 -0 0 0 0 -0 -0 -0 0 -0 0 0 0 -0 -0 -0 -0 -0 -0 -0 0 -0 0 -0 -0 0 0 -0 -1 -0 -0 -0 -0 -0 -0 -0 -0 -0 -0 -0 0 0 1 1 1 1 0 nan
nan -0 -0 0 0 -0 -0 0 0 0 -0 -0 -0 -0 -0 -0 0 0 0 0 0 0 -0 -0 -0 0 -0 0 -0 0 0 -0 -0 -0 -0 0 -0 0 0 -0 -0 -0 -0 -0 0 0 0 0 0 1 1 0 1 nan
nan -0 0 0 0 -0 0 0 0 0 -0 -0 -0 0 0 0 0 0 0 0 0 0 -0 -0 -0 -0 -0 0 0 -0 -1 -0 -0 -0 -0 0 -0 -0 -0 -0 -0 -1 -0 -0 -0 0 0 0 0 1 0 0 1 nan
nan 0 0 0 0 -0 0 0 0 0 -0 -0 0 0 0 0 0 0 0 0 0 0 0 -0 -0 -0 0 -0 -0 -0 0 0 -0 -1 -1 -0 -0 -0 -0 -0 -0 -0 -1 -0 -0 -0 0 0 0 0 0 1 0 nan
nan 0 0 0 0 -0 0 0 0 0 -0 0 0 0 0 0 0 0 0 0 0 -0 0 -0 -0 0 0 -0 0 0 0 0 0 -0 -2 -1 -2 -2 -1 -1 -1 -0 -0 -1 -0 -0 0 0 0 0 0 0 0 nan
nan 0 0 0 0 0 0 0 0 0 0 0 0 0 0 0 0 0 0 0 -0 0 -0 -1 0 0 0 0 -0 0 0 1 1 1 -0 -1 -0 -2 -3 -1 -1 -1 -0 -0 -0 -0 0 -0 0 0 0 0 0 nan
nan 0 0 0 0 0 0 0 0 0 0 0 0 0 0 -0 0 0 0 0 -0 -1 -1 0 0 0 0 -0 -0 -0 -0 -0 0 0 1 1 1 1 -2 -2 -1 -1 -0 0 -0 -1 -0 0 1 1 0 0 0 nan
nan 0 0 -0 0 0 0 0 0 0 0 0 0 0 -0 -0 0 0 -0 -1 -1 -1 -0 -0 0 0 0 -0 0 0 0 -0 -0 -0 -0 -0 -0 1 1 -1 -1 -1 -1 -0 0 -0 -1 0 1 1 0 0 1 nan
nan 0 0 0 0 0 0 0 0 0 0 0 -0 0 0 0 0 0 -0 -1 -0 -0 -0 0 0 -0 -0 -0 -0 0 0 0 -1 -0 1 -0 -2 -1 0 -0 -1 -0 -1 -1 0 0 -0 -0 0 0 0 0 0 nan
nan 0 0 0 0 0 -0 -0 0 0 -0 0 0 0 -0 0 0 0 -0 -1 -1 -1 -0 -0 -0 -0 -0 0 0 0 0 0 -1 -1 1 1 -1 -2 -1 -2 -1 -0 -0 -0 -0 0 0 0 -0 0 1 0 0 nan
nan 0 0 -0 -0 -0 -0 -0 -0 -0 0 0 0 0 0 -0 0 -0 -1 -1 -1 -1 -0 0 0 1 1 1 1 1 1 1 -0 -2 -1 1 1 0 1 -1 -3 -2 -0 -0 -0 0 0 0 -0 1 1 1 0 nan
nan -0 0 0 -0 -0 0 0 -0 -0 0 -0 -0 0 0 -0 -0 -1 -1 -1 -0 0 1 1 1 1 1 1 1 1 1 0 0 -0 -0 -0 1 1 0 -1 -3 -0 1 -1 -0 -0 0 0 0 0 1 0 -1 nan
nan -1 -0 1 0 0 -0 0 0 -0 -0 -0 -1 -0 -0 -1 -1 -1 -0 0 0 0 1 1 1 1 1 1 1 0 0 1 0 -0 -1 -1 -0 0 -0 -1 -1 -0 0 -0 -0 0 0 0 0 1 1 -0 -0 nan
nan 0 -1 -0 0 0 -0 -0 -0 -1 -0 -0 -0 -0 -1 -1 -1 -0 0 0 0 0 1 1 1 0 0 1 1 1 1 1 1 -0 -1 -2 -2 -0 0 -0 -1 -1 -0 -0 -0 0 1 1 1 1 0 -0 0 nan
nan 0 -0 -0 0 -0 -0 0 0 0 0 0 -0 -0 -0 -1 -1 -0 -0 0 1 1 1 0 0 1 1 0 -1 0 1 1 1 0 -1 -2 -1 -0 -0 -0 -1 -1 -0 -0 0 1 1 1 1 1 -0 -0 1 nan
nan 0 -0 0 0 0 0 0 0 0 0 0 1 0 -1 -1 -3 -1 -0 0 1 1 1 1 1 0 0 0 0 -1 -1 -0 1 1 0 -1 -1 -1 -1 -0 -0 -0 -0 -0 0 1 1 1 0 0 -0 0 1 nan
nan 0 -0 -0 0 0 0 0 0 0 0 0 0 0 -0 -0 -1 -1 -0 0 0 0 0 0 0 0 1 0 0 0 -0 -0 -0 -0 -1 -1 -1 -0 -0 -0 -0 0 -0 0 1 1 0 0 0 -0 -0 0 1 nan
nan nan nan nan nan nan nan nan nan nan nan nan nan nan nan nan nan nan nan nan nan nan nan nan nan nan nan nan nan nan nan nan nan nan nan nan nan nan nan nan nan nan nan nan nan nan nan nan nan nan nan nan nan nan
Wind_Speed
24 23 18 20 14 13 18 21 18 19 19 19 19 20 19 18 16 13 6 8 11 6 16 8 5 6 1 5 3 6 4 1 2 1 1 1 2 3 3 3 5 7 6 3 3 4 7 1 1 2 3 7 7 6
20 20 17 20 14 12 18 21 18 17 18 18 18 18 19 18 17 14 8 7 9 11 10 8 14 14 7 2 2 9 2 4 2 2 2 1 2 3 5 3 0 3 5 4 6 6 7 9 9 6 4 7 8 2
17 18 18 18 16 13 17 21 19 18 18 19 18 18 19 15 16 11 13 10 8 7 14 12 8 13 15 11 6 3 3 5 4 2 2 1 3 2 2 4 4 4 6 2 2 4 5 6 6 3 6 5 5 6
11 15 19 17 17 14 16 22 22 19 20 19 18 19 20 17 16 16 14 10 9 9 5 4 7 9 13 13 11 9 4 7 6 6 3 2 2 4 3 4 3 3 1 4 5 9 7 7 6 4 5 3 6 8
10 14 20 17 17 15 15 21 25 21 21 20 20 20 21 20 18 18 18 17 15 12 4 7 5 11 12 13 12 11 7 5 4 3 2 3 3 3 4 4 7 6 5 4 4 3 2 2 5 2 0 4 7 11
15 16 17 16 18 16 16 20 25 25 21 21 22 24 24 22 16 11 6 2 11 18 6 3 1 5 10 11 10 9 7 7 5 4 3 4 5 5 3 4 6 21 23 22 5 3 2 2 3 0 3 6 8 11
12 14 16 15 17 17 16 21 27 23 22 23 26 22 18 13 11 12 3 2 11 13 5 3 2 6 9 9 8 8 9 4 5 3 4 3 5 8 3 7 11 19 13 16 8 8 4 3 2 3 6 9 11 14
17 16 18 18 18 18 16 22 28 24 24 25 22 8 6 6 4 6 17 13 4 9 5 2 1 5 9 5 5 7 6 6 6 3 3 3 3 5 5 10 17 21 26 22 13 9 8 5 5 7 9 13 16 17
21 21 17 18 19 19 17 23 25 24 27 24 4 1 2 4 2 2 2 4 8 5 4 3 3 2 8 3 4 5 4 2 6 3 2 2 2 4 6 10 12 11 7 4 7 13 10 9 9 11 15 16 18 20
22 20 16 17 21 18 16 23 22 24 27 6 1 1 3 2 1 3 4 3 4 4 4 2 2 2 4 4 4 4 3 0 0 0 0 2 3 18 22 22 21 20 13 11 7 7 11 12 14 16 18 18 19 21
21 17 14 16 19 17 16 22 20 24 18 6 4 2 2 1 3 3 3 2 3 2 4 4 2 3 3 1 1 3 1 1 1 1 1 2 2 3 14 13 17 15 11 15 15 8 8 14 16 18 20 20 20 21
22 18 15 15 18 15 16 19 17 19 15 9 7 3 1 2 3 2 3 2 3 1 1 1 2 4 2 2 1 0 2 1 2 2 1 2 1 20 25 25 21 15 11 12 14 12 6 8 10 16 22 22 23 23
19 18 16 14 18 12 16 19 15 16 10 5 3 2 0 1 3 3 3 1 1 4 6 5 1 1 2 2 3 1 2 3 0 1 2 3 12 24 26 24 21 14 6 4 8 8 7 10 12 17 23 23 24 24
20 18 15 15 19 10 15 16 14 12 3 1 2 3 3 3 2 1 2 2 2 2 5 2 1 1 1 2 1 2 1 1 2 2 4 2 19 25 23 23 20 16 8 4 2 4 7 12 14 16 20 23 23 26
19 15 16 16 17 10 16 10 12 6 3 2 2 3 4 1 1 1 1 2 2 3 4 1 1 1 1 2 1 2 1 3 4 3 2 15 23 23 23 23 21 16 10 4 3 3 7 13 17 20 22 25 26 29
16 15 17 16 9 9 9 11 8 3 3 3 4 3 2 1 3 2 2 2 2 5 2 1 1 2 2 2 2 5 3 5 2 1 12 20 24 24 23 22 19 15 10 7 5 4 6 11 15 19 22 25 28 29
16 20 17 12 5 6 10 9 3 4 3 3 4 9 3 1 0 3 1 2 3 0 0 2 3 3 1 3 3 4 4 2 4 10 12 20 21 23 23 21 19 15 10 8 7 5 6 10 14 19 24 26 28 28
21 20 16 11 4 8 10 4 4 4 5 7 3 5 7 2 3 2 2 3 2 1 1 1 3 2 3 3 3 2 5 8 6 10 17 19 17 20 23 23 20 17 12 9 8 7 8 10 14 20 25 27 27 28
23 20 15 9 4 3 3 3 4 4 7 4 4 3 4 3 6 7 6 3 3 3 1 1 3 3 1 2 2 3 6 7 12 19 20 17 11 23 23 22 21 17 15 11 8 7 8 10 16 21 25 27 30 29
21 18 12 12 8 4 3 3 4 3 3 2 4 4 4 2 4 6 6 5 3 2 3 3 4 3 3 4 3 8 11 13 16 22 24 19 26 24 25 23 19 18 15 13 10 8 9 13 16 18 23 28 30 31
26 16 15 13 10 6 3 3 3 4 3 2 3 3 3 4 2 1 2 4 4 5 2 9 8 7 8 6 5 9 12 15 16 17 22 26 26 23 22 21 19 18 15 13 12 10 11 13 15 18 24 29 29 30
21 21 16 16 4 6 6 7 3 3 3 1 3 3 3 3 5 4 5 5 6 8 7 7 10 8 6 3 3 8 12 14 16 19 21 23 24 25 23 23 23 21 17 16 15 15 13 13 16 20 25 28 31 31
18 20 10 6 4 8 3 6 4 4 3 3 2 1 3 3 3 5 3 7 7 9 15 15 12 8 8 6 9 14 17 19 20 20 21 23 25 25 22 21 21 21 20 17 16 17 17 14 16 21 26 29 31 32
19 11 6 9 8 3 4 4 4 3 3 2 2 2 2 5 4 3 3 5 9 8 11 13 12 12 12 13 14 17 21 22 23 25 24 24 25 26 24 25 24 23 21 19 18 18 18 19 19 22 28 31 34 36
7 6 6 4 6 4 4 4 3 3 3 3 3 2 2 3 1 3 3 4 13 14 12 12 14 15 17 17 19 22 24 24 25 28 30 26 26 28 28 27 24 22 17 18 19 19 21 22 24 23 28 33 37 36
5 11 11 10 6 5 6 5 5 6 3 3 4 2 3 2 0 6 3 5 11 12 14 15 14 15 18 19 23 26 27 26 26 30 31 28 25 24 25 23 25 23 18 16 18 21 23 26 27 27 29 35 37 35
6 5 8 8 6 5 3 2 4 3 5 5 3 3 3 2 6 4 6 8 9 10 13 15 16 17 21 25 27 29 27 26 27 28 28 27 29 28 28 32 33 29 22 20 17 20 25 27 30 30 32 35 38 36
4 10 7 13 7 7 4 3 5 6 4 7 10 4 7 8 5 4 6 7 7 11 14 15 18 23 26 29 28 27 27 25 25 26 28 29 29 26 23 23 24 23 22 21 20 19 23 27 30 33 35 39 40 37
5 12 13 4 4 5 9 8 5 8 7 13 5 4 4 6 6 6 6 9 13 17 20 22 23 25 24 23 24 24 25 25 26 27 28 30 28 23 15 15 16 16 17 19 18 19 22 26 27 30 34 37 38 38
8 19 6 6 6 6 7 11 5 7 10 11 6 5 6 11 14 14 16 20 23 25 24 22 18 20 22 24 28 27 23 23 23 24 28 29 26 19 14 14 14 15 15 15 16 19 19 22 25 31 34 38 40 39
17 11 5 6 4 4 6 9 8 6 6 8 14 14 13 12 23 25 21 20 19 17 14 13 15 17 20 21 21 25 27 22 18 15 17 20 20 19 16 15 13 12 13 15 19 22 26 33 32 34 38 40 41 40
10 7 6 4 2 3 4 6 4 4 4 6 5 7 5 4 6 8 14 10 9 9 10 12 14 14 15 16 16 18 20 22 21 18 17 20 21 18 15 12 10 10 13 17 22 29 33 31 31 35 37 41 40 39
5 5 4 5 3 2 4 4 3 2 3 3 3 3 5 4 8 7 8 9 9 8 8 8 10 12 14 16 17 17 17 17 17 15 13 11 9 8 9 10 10 13 16 19 23 29 31 27 30 36 42 45 42 36
Wind_Direction
278 298 309 311 311 322 319 318 317 321 325 329 334 334 339 344 350 351 5 328 347 292 284 272 288 307 207 156 173 135 141 183 167 129 120 172 261 284 293 155 171 173 183 189 168 223 264 227 231 230 264 318 325 321
280 298 305 307 311 314 316 316 315 314 316 318 325 324 326 329 339 344 327 303 302 284 268 268 272 236 220 120 107 165 56 131 106 115 197 336 255 280 324 281 41 217 202 170 189 214 245 299 230 279 297 295 305 254
289 310 308 307 311 310 314 319 319 316 316 314 317 319 309 315 317 323 314 316 311 282 283 269 251 228 233 234 198 178 179 151 138 137 109 261 261 334 260 255 316 237 250 236 348 287 252 6 31 2 314 299 245 194
280 303 306 306 310 305 311 313 318 313 311 313 317 312 311 304 303 309 298 288 275 274 268 262 222 202 214 220 224 227 165 154 156 167 170 217 243 214 262 299 264 263 24 226 260 283 296 68 19 350 349 57 137 149
278 293 302 308 313 308 313 312 313 311 310 313 312 308 304 296 292 299 292 269 232 232 304 283 269 217 216 214 217 210 194 181 167 164 182 219 228 251 249 264 256 220 209 197 229 151 174 89 351 358 30 132 154 156
274 290 297 317 321 312 313 313 311 315 311 315 312 308 304 292 285 298 321 243 210 219 268 269 262 190 201 198 199 213 212 217 190 185 211 216 218 178 261 265 228 251 239 238 268 325 342 305 322 298 151 142 149 148
265 282 303 317 323 316 320 315 310 312 317 315 313 314 311 304 252 212 228 137 173 185 246 265 204 156 149 153 169 183 194 191 192 220 222 223 223 198 243 258 252 272 296 325 287 265 265 268 242 202 163 152 144 137
254 272 290 310 322 319 318 315 318 317 319 317 319 327 353 38 79 221 229 263 284 200 251 265 80 138 164 156 152 178 170 179 210 232 213 215 221 206 257 252 270 267 272 282 247 240 257 244 213 181 166 153 147 144
252 265 283 306 317 319 320 315 320 322 323 326 312 210 324 51 104 154 213 263 251 238 289 259 165 162 169 144 129 168 185 195 198 217 224 161 201 230 251 281 289 342 324 276 238 235 245 225 199 181 170 162 159 152
264 264 277 305 313 318 322 317 324 329 339 341 104 357 50 325 170 177 210 227 206 224 240 263 267 110 175 151 183 163 191 329 292 36 293 234 256 267 278 284 287 289 284 269 239 237 219 206 200 189 182 175 172 164
256 259 273 303 310 316 322 318 329 335 349 354 343 67 334 238 188 232 240 218 203 238 220 246 336 116 176 174 134 27 146 67 251 241 262 275 274 29 353 333 319 302 258 249 254 268 283 238 213 195 182 183 179 172
255 256 268 294 311 313 315 321 326 335 335 319 315 340 98 244 242 235 206 200 219 208 11 359 83 59 114 110 83 15 117 55 252 345 255 253 317 2 346 340 336 324 299 239 239 248 250 217 212 204 190 189 184 180
262 256 268 287 302 299 310 321 324 328 332 305 291 273 196 186 258 271 166 185 132 5 356 14 71 91 124 135 77 119 139 223 83 231 247 228 2 351 354 350 349 353 357 237 229 230 224 215 205 201 196 194 189 181
258 257 266 282 299 288 300 315 323 327 313 287 271 257 208 201 238 28 8 19 359 339 356 15 89 106 85 78 161 163 210 59 257 250 241 354 346 345 351 353 359 358 7 4 260 231 214 196 190 198 202 195 188 189
255 253 264 277 294 287 300 313 323 308 258 254 243 248 217 64 191 119 21 341 332 320 344 242 53 142 34 83 173 102 164 237 226 226 344 338 340 348 352 356 358 358 354 336 304 245 204 200 201 194 196 198 194 188
240 249 257 279 281 281 291 315 310 244 253 232 237 256 216 239 195 212 195 190 354 329 298 237 232 166 204 174 170 208 205 223 207 6 333 344 349 350 349 354 356 356 344 327 315 272 225 210 205 200 194 195 191 190
220 236 250 278 268 291 302 310 244 213 237 236 240 233 249 352 117 154 159 103 278 92 342 312 216 195 76 166 217 206 221 69 350 336 338 349 351 356 355 354 352 352 345 326 303 285 242 222 207 201 195 191 191 191
219 232 243 269 256 301 299 216 216 215 242 237 251 230 214 203 211 231 185 229 97 79 52 17 321 238 222 222 215 63 33 331 332 322 335 351 353 348 353 354 354 346 337 324 304 280 260 236 213 205 200 194 191 188
221 230 248 224 235 278 259 219 217 250 226 248 237 236 226 224 221 225 234 245 188 185 152 226 240 230 233 66 71 16 328 325 316 325 332 354 337 334 338 345 344 347 336 323 307 278 250 228 222 214 204 196 192 187
221 230 228 210 196 226 245 241 223 242 233 216 210 219 222 210 201 221 224 214 176 211 198 212 222 178 157 169 323 319 323 326 325 324 323 318 319 323 325 336 342 337 331 319 301 272 248 227 223 219 210 203 197 190
210 208 207 206 191 210 274 245 240 223 238 233 198 229 231 243 228 161 185 177 203 224 238 231 224 221 235 273 310 335 336 333 325 314 310 313 321 322 322 320 323 326 321 306 291 274 254 239 232 217 209 205 200 197
192 196 196 187 134 178 247 231 218 241 201 204 209 232 241 213 182 187 192 197 230 240 224 216 223 218 220 223 347 340 331 324 319 315 314 312 314 315 311 312 308 310 305 298 282 273 261 247 230 220 211 205 199 196
189 184 166 148 155 196 234 208 189 208 213 197 190 254 245 212 179 194 240 228 244 238 231 233 234 236 233 266 309 325 326 325 320 314 308 304 303 305 304 304 303 301 299 293 285 267 259 248 231 221 212 206 198 191
172 158 158 179 178 186 192 195 200 183 197 214 195 246 215 181 172 207 252 238 235 224 217 226 232 236 244 261 295 315 319 317 315 313 309 305 300 300 300 298 295 292 291 287 276 266 250 239 228 220 214 204 198 195
149 182 173 168 184 159 204 175 183 196 232 172 190 249 206 164 188 230 231 252 225 225 216 213 226 239 248 265 290 303 307 309 308 307 307 302 301 298 293 291 289 286 284 277 267 254 242 232 225 218 214 207 202 195
192 194 180 180 173 186 189 168 193 197 164 179 218 144 145 128 132 243 234 234 217 201 210 219 234 245 256 275 290 297 302 302 299 297 301 301 296 290 290 286 285 285 287 278 268 253 242 232 225 217 209 208 203 197
187 182 189 181 170 159 139 107 140 159 185 188 181 161 120 177 238 247 230 223 214 224 239 242 251 259 279 287 290 294 294 294 294 294 293 288 285 282 279 278 278 279 275 271 269 259 247 235 225 217 209 204 202 198
180 165 160 172 169 184 152 172 183 200 198 177 141 180 188 199 231 214 202 200 235 255 258 261 268 278 285 292 294 294 298 299 295 291 289 287 285 287 284 278 276 272 263 255 256 254 246 237 228 218 210 203 194 193
161 159 137 128 140 196 212 194 211 205 183 176 172 212 230 221 219 206 240 271 280 281 283 286 289 292 293 295 295 298 298 296 292 288 287 288 296 296 294 274 271 270 255 249 246 244 236 230 224 218 211 201 195 183
165 163 130 162 173 211 202 198 198 193 195 203 221 253 258 261 275 282 286 291 291 290 291 295 297 299 304 307 310 309 308 302 292 281 279 283 291 295 280 266 267 261 245 237 230 224 218 213 205 206 202 195 187 176
157 161 131 165 204 193 197 203 212 221 230 239 241 250 259 281 285 289 289 288 286 283 284 290 300 309 310 314 317 318 321 324 315 287 273 275 277 276 280 260 254 246 237 231 222 207 189 186 193 196 192 185 176 169
156 169 144 154 194 170 166 184 193 210 234 230 238 236 260 259 264 264 273 277 273 274 288 304 316 320 318 319 320 319 318 318 316 306 284 268 266 269 270 238 231 229 231 220 203 192 193 194 191 190 182 172 163 163
114 123 110 110 113 157 177 173 183 274 247 259 255 240 221 236 248 249 259 259 257 267 290 311 324 330 334 338 337 333 329 326 317 304 292 280 268 249 224 218 214 217 215 207 200 196 191 191 186 178 167 161 161 160
Height
1487 1482 1479 1478 1475 1474 1472 1470 1468 1465 1462 1458 1456 1456 1452 1448 1445 1443 1442 1442 1442 1438 1428 1426 1425 1424 1424 1424 1428 1430 1433 1434 1434 1434 1437 1436 1435 1427 1425 1419 1425 1429 1433 1434 1438 1439 1435 1402 1402 1405 1401 1397 1396 1395
1482 1478 1475 1474 1472 1471 1469 1467 1464 1462 1459 1456 1453 1453 1451 1448 1444 1441 1440 1439 1439 1438 1429 1425 1424 1423 1424 1425 1425 1427 1429 1429 1431 1434 1438 1436 1435 1432 1424 1422 1411 1418 1414 1415 1422 1416 1400 1398 1396 1396 1395 1396 1395 1395
1476 1474 1472 1470 1468 1467 1466 1463 1460 1458 1455 1452 1449 1448 1447 1445 1442 1441 1438 1437 1437 1435 1427 1422 1419 1421 1422 1423 1424 1426 1428 1428 1430 1432 1434 1436 1435 1431 1428 1419 1414 1408 1406 1410 1408 1396 1397 1396 1395 1394 1393 1393 1392 1394
1471 1470 1468 1466 1464 1463 1462 1460 1457 1453 1451 1448 1445 1444 1442 1440 1437 1436 1435 1435 1436 1435 1429 1417 1415 1417 1418 1421 1422 1424 1425 1427 1429 1431 1433 1433 1435 1432 1423 1419 1415 1410 1407 1407 1404 1398 1394 1395 1394 1394 1393 1393 1392 1393
1467 1466 1465 1462 1460 1459 1458 1457 1454 1450 1446 1443 1440 1438 1436 1434 1432 1429 1428 1427 1430 1433 1424 1416 1413 1413 1415 1418 1420 1423 1425 1426 1427 1430 1431 1431 1430 1429 1422 1418 1409 1405 1403 1405 1403 1394 1395 1395 1394 1394 1393 1393 1394 1393
1463 1463 1461 1458 1456 1454 1453 1453 1449 1445 1441 1438 1434 1431 1428 1426 1425 1424 1422 1421 1423 1426 1428 1416 1410 1411 1413 1415 1418 1420 1422 1425 1426 1427 1426 1425 1425 1427 1421 1409 1399 1396 1395 1395 1394 1393 1394 1394 1393 1393 1394 1393 1394 1395
1458 1459 1458 1455 1452 1450 1449 1449 1445 1441 1436 1432 1428 1424 1419 1417 1417 1420 1421 1419 1421 1424 1423 1415 1407 1410 1412 1414 1417 1419 1420 1421 1423 1424 1423 1421 1421 1422 1415 1406 1394 1391 1390 1391 1392 1391 1393 1392 1392 1393 1393 1394 1395 1397
1453 1454 1454 1452 1449 1446 1445 1445 1441 1437 1432 1427 1422 1419 1417 1415 1415 1417 1418 1419 1420 1420 1418 1412 1406 1409 1411 1413 1415 1418 1419 1420 1420 1420 1419 1418 1417 1416 1406 1393 1392 1390 1389 1389 1390 1391 1391 1391 1391 1392 1394 1395 1396 1398
1448 1449 1450 1449 1446 1443 1442 1441 1436 1433 1428 1421 1418 1418 1417 1416 1418 1418 1419 1419 1418 1421 1415 1409 1408 1408 1410 1411 1413 1416 1416 1416 1417 1416 1415 1415 1411 1407 1394 1393 1391 1389 1389 1388 1388 1389 1389 1390 1389 1391 1393 1395 1397 1399
1443 1445 1446 1445 1442 1440 1439 1438 1433 1429 1424 1420 1418 1418 1417 1418 1418 1418 1420 1418 1417 1416 1414 1409 1405 1406 1409 1409 1411 1413 1414 1414 1416 1413 1413 1412 1405 1396 1394 1393 1391 1389 1389 1388 1387 1388 1387 1388 1388 1390 1392 1395 1397 1399
1439 1440 1442 1441 1439 1437 1437 1435 1431 1426 1423 1422 1419 1417 1416 1417 1418 1418 1416 1415 1414 1413 1409 1406 1405 1406 1409 1410 1409 1412 1414 1416 1415 1416 1413 1409 1401 1397 1397 1393 1390 1386 1384 1383 1385 1384 1384 1384 1386 1389 1392 1394 1397 1400
1435 1436 1437 1437 1436 1435 1435 1432 1429 1426 1425 1424 1421 1418 1417 1418 1417 1417 1412 1413 1411 1406 1406 1405 1407 1408 1410 1410 1411 1414 1415 1417 1414 1414 1414 1407 1403 1400 1395 1390 1386 1383 1380 1379 1381 1382 1382 1383 1385 1389 1392 1394 1397 1400
1430 1432 1433 1432 1432 1432 1432 1431 1426 1425 1423 1423 1422 1419 1417 1417 1414 1410 1407 1407 1407 1409 1409 1408 1409 1409 1410 1411 1413 1414 1416 1415 1414 1414 1407 1407 1403 1399 1394 1390 1384 1381 1377 1377 1378 1380 1381 1382 1384 1387 1389 1394 1397 1400
1426 1427 1429 1428 1428 1428 1427 1427 1425 1423 1423 1423 1422 1419 1415 1411 1410 1410 1411 1411 1412 1410 1410 1409 1409 1409 1409 1411 1412 1412 1413 1414 1412 1412 1410 1406 1404 1399 1395 1391 1385 1380 1378 1378 1379 1380 1381 1382 1383 1386 1390 1393 1396 1400
1421 1423 1425 1425 1425 1424 1424 1424 1423 1422 1423 1422 1422 1415 1412 1411 1411 1411 1411 1412 1412 1411 1410 1410 1409 1410 1410 1411 1411 1414 1414 1411 1407 1409 1407 1406 1403 1399 1395 1391 1386 1383 1381 1380 1380 1381 1381 1383 1383 1384 1387 1392 1396 1400
1417 1419 1419 1422 1420 1420 1420 1420 1420 1421 1421 1420 1418 1415 1412 1412 1411 1412 1411 1410 1411 1410 1410 1411 1409 1409 1407 1409 1411 1408 1407 1404 1407 1408 1408 1405 1401 1398 1395 1392 1388 1384 1383 1382 1382 1382 1382 1382 1384 1386 1389 1392 1395 1399
1412 1413 1416 1417 1417 1418 1418 1418 1418 1418 1418 1416 1412 1411 1410 1410 1410 1411 1411 1411 1410 1410 1410 1410 1407 1404 1408 1406 1407 1403 1401 1405 1408 1407 1406 1404 1400 1397 1394 1391 1389 1386 1383 1382 1382 1382 1382 1383 1384 1386 1388 1391 1395 1398
1407 1409 1412 1413 1414 1416 1415 1415 1416 1415 1414 1412 1411 1410 1409 1409 1409 1410 1410 1410 1410 1409 1410 1410 1411 1407 1403 1399 1398 1404 1406 1406 1406 1405 1403 1401 1399 1398 1395 1391 1388 1386 1384 1382 1382 1382 1383 1384 1384 1387 1389 1392 1396 1399
1402 1406 1409 1410 1413 1415 1413 1413 1413 1411 1409 1409 1408 1409 1409 1408 1408 1408 1408 1409 1410 1409 1409 1409 1409 1404 1402 1403 1404 1405 1406 1405 1403 1400 1399 1399 1398 1396 1393 1392 1388 1385 1384 1382 1381 1381 1382 1383 1384 1386 1389 1392 1394 1398
1399 1403 1405 1408 1411 1412 1411 1411 1410 1409 1408 1407 1406 1407 1407 1406 1405 1406 1407 1407 1409 1409 1408 1406 1401 1400 1401 1402 1403 1403 1403 1401 1399 1395 1394 1394 1393 1392 1390 1388 1386 1384 1382 1381 1380 1380 1380 1381 1383 1386 1389 1391 1393 1396
1395 1399 1402 1405 1408 1410 1409 1407 1407 1407 1406 1405 1404 1405 1404 1403 1403 1404 1406 1406 1407 1405 1400 1396 1396 1397 1399 1400 1400 1400 1399 1397 1396 1395 1392 1388 1387 1387 1385 1385 1383 1382 1381 1380 1379 1378 1378 1379 1381 1383 1385 1388 1393 1397
1390 1395 1399 1402 1404 1407 1407 1405 1405 1405 1405 1404 1404 1403 1402 1402 1401 1402 1403 1404 1400 1394 1393 1392 1392 1393 1395 1396 1396 1396 1396 1395 1394 1392 1390 1387 1384 1383 1381 1380 1379 1378 1378 1377 1376 1376 1376 1377 1379 1381 1383 1386 1390 1395
1388 1393 1396 1399 1402 1403 1403 1402 1403 1402 1403 1402 1402 1402 1401 1399 1399 1400 1401 1396 1390 1387 1387 1389 1390 1391 1392 1393 1392 1392 1391 1390 1388 1387 1385 1383 1381 1379 1377 1376 1375 1373 1372 1372 1373 1373 1373 1374 1374 1377 1380 1384 1388 1392
1385 1390 1392 1394 1396 1399 1400 1399 1400 1400 1401 1400 1400 1399 1398 1397 1398 1399 1396 1387 1381 1381 1383 1385 1387 1388 1389 1388 1388 1387 1386 1384 1382 1380 1379 1377 1374 1373 1372 1370 1369 1368 1367 1367 1367 1367 1369 1370 1370 1372 1376 1380 1383 1387
1384 1389 1390 1391 1392 1395 1395 1396 1396 1397 1395 1395 1397 1396 1395 1396 1398 1396 1390 1379 1377 1377 1379 1381 1383 1383 1383 1383 1382 1382 1381 1379 1377 1374 1371 1370 1368 1365 1363 1362 1361 1360 1361 1361 1361 1362 1363 1365 1365 1366 1372 1376 1378 1383
1377 1379 1381 1380 1384 1387 1385 1388 1390 1390 1390 1394 1393 1393 1393 1395 1398 1392 1379 1372 1373 1374 1375 1376 1377 1378 1377 1377 1376 1375 1374 1371 1369 1365 1363 1362 1360 1357 1355 1354 1352 1352 1355 1355 1355 1356 1357 1359 1360 1362 1365 1371 1376 1381
1368 1371 1371 1374 1376 1378 1380 1381 1382 1385 1387 1388 1388 1392 1393 1398 1393 1375 1369 1369 1370 1372 1372 1373 1373 1372 1371 1370 1369 1368 1365 1363 1360 1357 1355 1353 1351 1350 1349 1346 1344 1345 1347 1348 1349 1349 1350 1352 1354 1357 1359 1364 1371 1377
1357 1360 1365 1369 1372 1374 1376 1378 1379 1378 1378 1377 1381 1387 1386 1381 1374 1365 1365 1367 1368 1369 1369 1368 1368 1366 1364 1362 1360 1357 1354 1352 1349 1346 1343 1341 1340 1339 1338 1336 1335 1336 1337 1339 1341 1342 1343 1345 1348 1351 1354 1358 1364 1372
1353 1355 1359 1366 1369 1371 1370 1369 1367 1366 1367 1368 1372 1372 1367 1364 1362 1362 1363 1364 1364 1363 1362 1361 1360 1357 1355 1354 1351 1348 1346 1343 1340 1336 1334 1330 1329 1330 1330 1329 1328 1329 1329 1331 1333 1334 1336 1340 1343 1346 1350 1357 1363 1369
1348 1352 1356 1360 1362 1362 1359 1360 1360 1361 1363 1364 1364 1363 1361 1359 1358 1358 1358 1357 1356 1355 1353 1352 1351 1349 1347 1344 1340 1338 1337 1333 1330 1328 1324 1322 1322 1323 1323 1322 1322 1322 1323 1325 1327 1330 1333 1336 1340 1344 1347 1354 1360 1366
1343 1348 1351 1353 1355 1355 1355 1356 1358 1359 1360 1360 1360 1360 1358 1356 1353 1352 1350 1349 1348 1347 1347 1347 1346 1344 1340 1337 1334 1329 1325 1324 1321 1319 1318 1316 1315 1315 1316 1316 1317 1317 1319 1321 1323 1326 1329 1332 1335 1340 1344 1351 1359 1366
1342 1344 1347 1351 1353 1353 1354 1355 1356 1357 1358 1357 1355 1354 1354 1354 1351 1347 1343 1343 1343 1343 1343 1341 1340 1338 1336 1333 1330 1326 1322 1318 1314 1312 1310 1309 1309 1309 1310 1310 1312 1313 1315 1318 1320 1323 1327 1331 1334 1339 1345 1353 1361 1370
1341 1343 1346 1348 1351 1353 1354 1356 1356 1356 1355 1353 1351 1351 1351 1352 1347 1342 1339 1339 1340 1340 1339 1338 1337 1334 1332 1328 1325 1321 1318 1314 1310 1307 1305 1304 1304 1305 1306 1307 1309 1311 1314 1317 1320 1323 1327 1331 1336 1342 1348 1355 1364 1373